[[{"header":{"parameterUnit":"m.s-1","parameterCategory":1,"la1":30.2991,"la2":30.254,"lo1":-89.0895,"lo2":-89.0444,"dy":0.0017,"dx":0.0017,"nx":28,"ny":28,"refTime":"2024-04-17T09:00:00:Z","depth":0,"parameterNumber":2,"parameterNumberName":"U-component_of_WINDS"},"data":[0,0,0,0,0,0,0,0,0,0,0,0,0,0,0,0,0,0,0,0,0,0,0,0,0,0,0,0,0,0,0,0,0,0,0,0,0,0,0,0,0,0,0,0,0,0,0,0,0,0,0,0,0,0,0,0,0,0,-3.0235,-3.0235,0,-3.0213,-3.0213,-3.0213,-3.0146,-3.0144,-3.0143,-3.0141,-3.0121,-3.0121,-3.0122,0,0,0,0,0,0,0,0,0,0,0,0,0,-3.022,-3.022,-3.0235,-3.0235,-3.0235,-3.0213,-3.0213,-3.0213,-3.0146,-3.0144,-3.0142,-3.0141,-3.012,-3.0121,-3.0122,0,0,0,0,0,0,0,0,0,0,0,0,0,-3.0215,-3.0221,-3.0235,-3.0199,-3.0195,-3.0213,-3.0213,-3.0213,-3.0146,-3.0144,-3.0142,-3.014,-3.012,-3.0121,-3.0122,-3.0175,0,0,-3.0126,-3.0127,0,0,0,0,0,0,0,0,-3.0216,-3.0216,-3.0204,-3.0201,-3.0197,-3.018,-3.02,-3.02,-3.0147,-3.0165,-3.0141,-3.0139,-3.0142,-3.0141,-3.0142,-3.0174,-3.0173,-3.0126,-3.0127,-3.0128,-3.0128,0,0,0,0,0,0,0,-3.0216,-3.0216,-3.0226,-3.0204,-3.02,-3.0184,-3.0181,-3.02,-3.0166,-3.0163,-3.0158,-3.0157,-3.014,-3.0141,-3.0141,-3.0172,-3.0126,-3.0127,-3.0128,-3.0129,-3.0245,-3.0247,0,0,0,0,0,0,-3.0221,-3.0217,-3.0227,-3.0226,-3.0201,-3.0186,-3.0182,-3.0188,-3.0166,-3.0161,-3.0159,-3.0154,-3.014,-3.014,-3.014,-3.0199,-3.0128,-3.0129,-3.0129,-3.0242,-3.0245,-3.0248,0,0,0,0,0,0,-3.0221,-3.0223,-3.0228,-3.022,-3.022,-3.0188,-3.0195,-3.0189,-3.019,-3.0162,-3.0156,-3.0166,-3.0139,-3.0139,-3.0166,-3.0197,-3.0129,-3.013,-3.024,-3.0243,-3.0246,-3.0318,0,0,0,0,0,0,-3.0221,-3.0223,-3.0242,-3.0221,-3.022,-3.0254,-3.0197,-3.019,-3.0192,-3.0185,-3.0168,-3.0163,-3.0137,-3.0165,-3.0168,-3.0198,-3.0131,-3.0237,-3.0241,-3.0245,-3.0312,-3.0323,-3.0332,0,0,0,0,0,-3.0221,-3.0264,-3.0244,-3.0245,-3.0244,-3.0256,-3.0256,-3.0225,-3.0195,-3.0214,-3.0196,-3.0163,-3.0194,-3.0168,-3.0171,-3.0202,-3.0234,-3.024,-3.0245,-3.0308,-3.0321,-3.0332,0,0,0,0,0,0,-3.029,-3.026,-3.0238,-3.0275,-3.0269,-3.0245,-3.0268,-3.024,-3.0242,-3.0235,-3.0197,-3.0194,-3.0227,-3.0217,-3.0189,-3.0251,-3.0209,-3.0215,-3.0256,-3.0268,-3.0278,-3.0279,-3.0132,0,0,0,0,0,-3.031,-3.0322,-3.0296,-3.0331,-3.0329,-3.03,-3.0304,-3.028,-3.0272,-3.0269,-3.0253,-3.0247,-3.0255,-3.0261,-3.0267,-3.0311,-3.0306,-3.0334,-3.0344,-3.0352,-3.0357,-3.0379,-3.0391,-3.0265,-3.0265,-3.0265,0,0,-3.0351,-3.0336,-3.0346,-3.0345,-3.0337,-3.0351,-3.0298,-3.0315,-3.0324,-3.0272,-3.0296,-3.0285,-3.0275,-3.0311,-3.0326,-3.0304,-3.0391,-3.0359,-3.0366,-3.0366,-3.0386,-3.0397,-3.0408,-3.0269,-3.0268,-3.0267,0,0,-3.0432,-3.0422,-3.045,-3.0443,-3.0432,-3.0412,-3.0419,-3.0399,-3.0389,-3.0413,-3.0374,-3.0386,-3.0401,-3.0395,-3.0394,-3.0473,-3.0442,-3.0476,-3.0528,-3.0549,-3.0559,-3.0568,-3.0595,-3.0605,-3.0482,-3.0482,-3.0482,0,-3.0484,-3.0502,-3.0469,-3.0487,-3.0488,-3.0441,-3.0469,-3.0464,-3.0456,-3.0457,-3.0433,-3.045,-3.044,-3.0473,-3.0493,-3.0494,-3.05,-3.0477,-3.0561,-3.0569,-3.0576,-3.0602,-3.0612,-3.0486,-3.0486,-3.0485,-3.0485,0,-3.0567,-3.058,-3.0604,-3.0596,-3.06,-3.0623,-3.0593,-3.0601,-3.0577,-3.056,-3.0585,-3.0572,-3.0574,-3.058,-3.0558,-3.061,-3.0597,-3.0567,-3.0524,-3.0593,-3.0616,-3.0626,-3.0492,-3.0491,-3.0489,-3.0488,0,0,-3.069,-3.0663,-3.0672,-3.0667,-3.0651,-3.0661,-3.0683,-3.0684,-3.0691,-3.0687,-3.0704,-3.0718,-3.069,-3.0689,-3.0666,-3.0685,-3.0747,-3.0653,-3.0652,-3.067,-3.0803,-3.0824,-3.0836,-3.0727,-3.0729,-3.073,-3.0803,0,-3.0766,-3.08,-3.077,-3.081,-3.0822,-3.0777,-3.0796,-3.0789,-3.0773,-3.0781,-3.0764,-3.0774,-3.0737,-3.0736,-3.0753,-3.0736,-3.0773,-3.073,-3.0742,-3.0743,-3.0744,-3.0848,-3.087,-3.094,-3.0812,-3.0813,-3.0815,0,-3.0858,-3.0857,-3.0898,-3.0879,-3.0883,-3.09,-3.0898,-3.0907,-3.0897,-3.0885,-3.0884,-3.0855,-3.0875,-3.0834,-3.086,-3.0832,-3.0835,-3.0827,-3.0829,-3.0828,-3.0782,-3.0848,-3.0961,-3.0971,-3.0829,-3.0828,-3.0826,0,-3.0942,-3.0952,-3.0977,-3.0975,-3.0953,-3.0966,-3.0958,-3.0946,-3.0949,-3.0948,-3.0949,-3.0951,-3.0952,-3.0954,-3.0927,-3.0899,-3.0956,-3.0913,-3.0946,-3.0947,-3.0959,-3.0958,-3.1072,-3.0963,-3.0963,-3.0963,-3.0963,0,-3.1029,-3.1056,-3.1014,-3.103,-3.1059,-3.1024,-3.1053,-3.1041,-3.1031,-3.1043,-3.1006,-3.1018,-3.0982,-3.099,-3.0969,-3.0994,-3.0995,-3.0985,-3.0979,-3.0987,-3.0989,-3.0988,-3.0982,-3.0966,-3.0965,-3.0965,-3.0964,0,-3.1127,-3.1101,-3.1126,-3.1103,-3.1098,-3.112,-3.11,-3.1114,-3.1096,-3.1112,-3.1114,-3.1086,-3.1094,-3.1068,-3.1072,-3.1058,-3.1093,-3.108,-3.1096,-3.1092,-3.1125,-3.1122,-3.1242,-3.1256,-3.114,-3.1141,-3.1142,0,-3.1184,-3.1203,-3.1182,-3.1187,-3.1181,-3.119,-3.1192,-3.1159,-3.1163,-3.1154,-3.1168,-3.1173,-3.1175,-3.1191,-3.1171,-3.1174,-3.116,-3.1202,-3.116,-3.1168,-3.1159,-3.1157,-3.1159,-3.121,-3.1211,-3.1213,-3.1214,0,-3.1286,-3.1272,-3.1276,-3.1276,-3.1279,-3.1278,-3.1274,-3.128,-3.1245,-3.1251,-3.1259,-3.1261,-3.1265,-3.127,-3.1269,-3.126,-3.1231,-3.1227,-3.1234,-3.1243,-3.1251,-3.1246,-3.1118,-3.1224,-3.1223,-3.1222,-3.1222,-3.1221,-3.1364,-3.1379,-3.1366,-3.1372,-3.1365,-3.1362,-3.1373,-3.1357,-3.1362,-3.1362,-3.1343,-3.1354,-3.1344,-3.1339,-3.1334,-3.1342,-3.1323,-3.1334,-3.1337,-3.134,-3.1345,-3.1251,-3.1342,-3.1342,-3.1341,-3.1341,-3.1341,0,-3.1464,-3.1453,-3.1459,-3.1454,-3.1458,-3.143,-3.1424,-3.143,-3.144,-3.1433,-3.1436,-3.1444,-3.1449,-3.143,-3.1432,-3.1442,-3.1429,-3.1444,-3.1442,-3.1441,-3.1363,-3.1355,-3.1455,-3.1455,-3.1455,-3.1455,-3.1455,-3.1455,-3.1516,-3.1539,-3.1523,-3.1542,-3.1532,-3.1542,-3.1541,-3.1538,-3.1531,-3.1542,-3.1546,-3.1533,-3.1521,-3.1522,-3.1525,-3.1519,-3.1521,-3.154,-3.153,-3.1457,-3.1446,-3.1436,-3.1428,-3.1541,-3.1542,-3.1607,-3.1607,-3.1608]},{"header":{"parameterUnit":"m.s-1","parameterCategory":1,"la1":30.2991,"la2":30.254,"lo1":-89.0895,"lo2":-89.0444,"dy":0.0017,"dx":0.0017,"nx":28,"ny":28,"refTime":"2024-04-17T09:00:00:Z","depth":0,"parameterNumber":3,"parameterNumberName":"V-component_of_WINDS"},"data":[0,0,0,0,0,0,0,0,0,0,0,0,0,0,0,0,0,0,0,0,0,0,0,0,0,0,0,0,0,0,0,0,0,0,0,0,0,0,0,0,0,0,0,0,0,0,0,0,0,0,0,0,0,0,0,0,0,0,3.0581,3.0581,0,3.061,3.061,3.061,3.0665,3.0666,3.0667,3.0668,3.0692,3.0691,3.0691,0,0,0,0,0,0,0,0,0,0,0,0,0,3.0569,3.0569,3.0581,3.0581,3.0582,3.0609,3.061,3.061,3.0665,3.0666,3.0668,3.0669,3.0692,3.0691,3.0691,0,0,0,0,0,0,0,0,0,0,0,0,0,3.0584,3.0569,3.0581,3.0613,3.0616,3.0609,3.061,3.061,3.0665,3.0666,3.0668,3.067,3.0692,3.0691,3.0691,3.0654,0,0,3.0689,3.0688,0,0,0,0,0,0,0,0,3.0583,3.0584,3.0607,3.061,3.0614,3.0636,3.0614,3.0625,3.0664,3.0646,3.0669,3.067,3.0671,3.0672,3.0674,3.0655,3.0656,3.0689,3.0688,3.0688,3.0688,0,0,0,0,0,0,0,3.0582,3.0583,3.0592,3.0608,3.0612,3.0624,3.0628,3.0617,3.0649,3.0648,3.0652,3.0655,3.0673,3.0674,3.0675,3.0656,3.0689,3.0688,3.0688,3.0688,3.0611,3.0609,0,0,0,0,0,0,3.0577,3.0582,3.0591,3.0593,3.0602,3.0623,3.0627,3.0627,3.0649,3.0654,3.0653,3.0657,3.0675,3.0676,3.0676,3.0636,3.0688,3.0687,3.0687,3.0612,3.061,3.0609,0,0,0,0,0,0,3.0576,3.0577,3.059,3.0589,3.0591,3.0621,3.0621,3.0627,3.0628,3.0653,3.0659,3.0649,3.0676,3.0677,3.066,3.0638,3.0687,3.0687,3.0614,3.0612,3.0609,3.0555,0,0,0,0,0,0,3.0576,3.0577,3.0564,3.0588,3.0591,3.0575,3.0619,3.0626,3.0627,3.0633,3.0651,3.0655,3.0677,3.0661,3.0659,3.0638,3.0686,3.0616,3.0613,3.061,3.0559,3.0551,3.0544,0,0,0,0,0,3.0575,3.0545,3.0563,3.0564,3.0576,3.0573,3.0575,3.0603,3.0625,3.0612,3.0629,3.0655,3.064,3.0658,3.0657,3.0635,3.0618,3.0614,3.061,3.0562,3.0552,3.0544,0,0,0,0,0,0,3.0515,3.0549,3.0569,3.0546,3.0557,3.0583,3.0567,3.0591,3.0594,3.0598,3.0631,3.0634,3.0613,3.0622,3.0642,3.0602,3.0633,3.0629,3.0597,3.0588,3.058,3.0579,3.0686,0,0,0,0,0,3.05,3.0497,3.0526,3.0503,3.0508,3.0536,3.0536,3.0557,3.0568,3.0572,3.0587,3.0596,3.0594,3.0591,3.059,3.056,3.0565,3.0545,3.0537,3.0531,3.0527,3.0514,3.0505,3.0596,3.0596,3.0596,0,0,3.0467,3.0485,3.0481,3.0491,3.0502,3.0497,3.0539,3.0531,3.0528,3.057,3.0557,3.0568,3.0579,3.0557,3.0547,3.0563,3.0503,3.0526,3.0521,3.0521,3.0509,3.05,3.0492,3.0594,3.0594,3.0595,0,0,3.0405,3.0419,3.0402,3.0413,3.0429,3.0449,3.0445,3.0468,3.0478,3.0465,3.0498,3.0492,3.0487,3.0495,3.0498,3.0441,3.0465,3.044,3.0401,3.0387,3.038,3.0374,3.0355,3.0347,3.0436,3.0436,3.0435,0,3.0362,3.0357,3.039,3.0381,3.0385,3.0426,3.041,3.0418,3.0432,3.0433,3.0452,3.0448,3.0458,3.0438,3.0425,3.0426,3.0422,3.0438,3.0379,3.0373,3.0368,3.035,3.0342,3.0432,3.0433,3.0433,3.0433,0,3.0304,3.03,3.0285,3.0301,3.0303,3.029,3.032,3.0318,3.0339,3.0356,3.0343,3.0357,3.0361,3.0357,3.0376,3.0341,3.0351,3.0373,3.0406,3.0355,3.0339,3.0332,3.0428,3.0429,3.043,3.0431,0,0,3.0204,3.0241,3.0234,3.0243,3.0265,3.0262,3.0251,3.0257,3.0255,3.0264,3.0255,3.0251,3.0273,3.0277,3.0297,3.0285,3.0241,3.031,3.0311,3.0297,3.0204,3.0187,3.0179,3.0257,3.0256,3.0255,3.0203,0,3.0148,3.0133,3.0163,3.0141,3.0138,3.0178,3.0169,3.018,3.0197,3.0196,3.0213,3.021,3.0239,3.0242,3.0231,3.0248,3.0223,3.0253,3.0249,3.0248,3.0246,3.017,3.0152,3.0102,3.0197,3.0196,3.0195,0,3.008,3.0089,3.0067,3.0093,3.0092,3.0083,3.0093,3.0091,3.0105,3.0118,3.0123,3.0148,3.0138,3.017,3.0157,3.0176,3.0177,3.0185,3.0183,3.0184,3.0219,3.0169,3.0087,3.008,3.0185,3.0186,3.0187,0,3.0011,3.0017,3.0005,3.0011,3.004,3.0033,3.0045,3.0061,3.0063,3.007,3.0072,3.0077,3.0079,3.0082,3.0108,3.0128,3.0091,3.0125,3.0101,3.0101,3.0092,3.0092,3.0009,3.0091,3.0091,3.0091,3.0091,0,2.9945,2.993,2.9975,2.9968,2.9952,2.9987,2.997,2.9985,3.0,2.9995,3.0029,3.0024,3.0058,3.0056,3.0075,3.0062,3.0063,3.0072,3.0078,3.007,3.0069,3.007,3.0075,3.0089,3.0089,3.009,3.009,0,2.9865,2.9895,2.9885,2.9914,2.9921,2.9909,2.9934,2.9928,2.9947,2.9941,2.9942,2.9971,2.9971,2.9997,3.0001,3.0014,2.9993,3.0004,2.9989,2.9993,2.9969,2.9971,2.9884,2.9875,2.9961,2.9961,2.996,0,2.9822,2.9812,2.9842,2.9843,2.9853,2.9854,2.9857,2.989,2.9892,2.9909,2.9901,2.9905,2.9909,2.9907,2.9928,2.9931,2.9943,2.9913,2.9944,2.9937,2.9944,2.9945,2.9944,2.9906,2.9905,2.9904,2.9903,0,2.9742,2.9758,2.9763,2.9773,2.9777,2.9786,2.9797,2.9795,2.9832,2.9832,2.9834,2.9838,2.9844,2.9847,2.9855,2.9865,2.989,2.9894,2.9889,2.9881,2.9873,2.9878,2.9972,2.9895,2.9896,2.9897,2.9897,2.9898,2.968,2.9674,2.9695,2.9699,2.9712,2.9722,2.9719,2.9739,2.9741,2.9751,2.977,2.9769,2.9784,2.9799,2.9807,2.9806,2.9821,2.9813,2.9812,2.9809,2.9805,2.9873,2.9807,2.9807,2.9808,2.9808,2.9808,0,2.9603,2.9619,2.9623,2.9639,2.9643,2.9669,2.9682,2.9683,2.9683,2.9696,2.9701,2.9704,2.9707,2.9729,2.9735,2.973,2.9742,2.973,2.9731,2.9733,2.9791,2.9795,2.9721,2.9721,2.9721,2.9721,2.9721,2.9721,2.9563,2.9555,2.9573,2.9571,2.9587,2.9589,2.9594,2.9604,2.9615,2.9617,2.9622,2.9637,2.9654,2.9661,2.9665,2.9672,2.9672,2.9657,2.9667,2.9721,2.9729,2.9737,2.9742,2.9657,2.9657,2.961,2.961,2.961]}]]